Location: Unspecified
(0.0000°N, 0.0000°E)
Time: 13:12:00
(UTC+00:00)

Tiros 1 despin weight - All Passes

Search period start: 29 March 2017 00:00
Search period end: 08 April 2017 00:00
Orbit: 596 x 644 km, 48.2° (Epoch: 27 March)

Date Brightness Start Highest point End Pass type
(mag) Time Alt. Az. Time Alt. Az. Time Alt. Az.
29 Mar - 09:17:35 10° NNE 09:18:53 11° NE 09:20:13 10° ENE daylight
29 Mar - 10:55:58 10° NW 11:00:19 52° SW 11:04:46 10° SSE daylight
29 Mar - 21:24:17 10° S 21:27:37 19° SE 21:30:56 10° E night (unlit)
29 Mar - 23:04:58 10° WSW 23:09:04 31° NW 23:13:06 10° NNE night (unlit)
30 Mar - 09:32:02 10° N 09:35:56 30° NE 09:39:53 10° ESE daylight
30 Mar - 11:14:08 10° W 11:17:21 19° SW 11:20:38 10° S daylight
30 Mar - 21:40:08 10° SSW 21:44:40 51° SE 21:49:07 10° NE night (unlit)
30 Mar - 23:24:22 10° WNW 23:26:07 12° NW 23:27:50 10° NNW night (unlit)
31 Mar - 09:48:27 10° NW 09:52:55 87° NE 09:57:27 10° SE daylight
31 Mar - 20:18:35 10° SSE 20:20:07 11° SE 20:21:40 10° ESE night (unlit)
31 Mar - 21:57:05 10° SW 22:01:39 55° NW 22:06:07 10° NNE night (unlit)
01 Apr - 08:25:33 10° N 08:28:30 17° NE 08:31:30 10° E daylight
01 Apr - 10:05:55 10° WNW 10:09:54 32° SW 10:13:58 10° SSE daylight
01 Apr - 20:33:08 10° S 20:37:13 30° SE 20:41:14 10° ENE night (unlit)
01 Apr - 22:15:11 10° W 22:18:38 21° NW 22:22:03 10° N night (unlit)
02 Apr - 08:41:15 10° NNW 08:45:31 47° NE 08:49:50 10° SE daylight
02 Apr - 10:25:08 10° WSW 10:26:59 12° SW 10:28:50 10° SSW daylight
02 Apr - 20:49:32 10° SW 20:54:13 83° SE 20:58:49 10° NE night (unlit)
03 Apr - 08:58:08 10° NW 09:02:29 58° SW 09:06:55 10° SSE daylight
03 Apr - 19:26:33 10° S 19:29:44 18° SE 19:32:53 10° E visible
03 Apr - 21:06:57 10° WSW 21:11:12 35° NW 21:15:23 10° NNE night (unlit)
04 Apr - 07:34:21 10° N 07:38:06 27° NE 07:41:52 10° ESE daylight
04 Apr - 09:16:09 10° W 09:19:30 21° SW 09:22:54 10° S daylight
04 Apr - 19:42:16 10° SSW 19:46:47 47° SE 19:51:13 10° NE visible
04 Apr - 21:25:57 10° W 21:28:13 13° NW 21:30:29 10° NNW night (unlit)
05 Apr - 07:50:40 10° NW 07:55:04 78° NE 07:59:33 10° SE daylight
05 Apr - 18:21:22 10° SE 18:22:13 10° SE 18:23:05 10° ESE visible
05 Apr - 19:59:08 10° SW 20:03:46 62° NW 20:08:19 10° NNE visible
06 Apr - 06:27:59 10° NNE 06:30:40 16° NE 06:33:21 10° E daylight
06 Apr - 08:08:01 10° WNW 08:12:04 35° SW 08:16:10 10° SSE daylight
06 Apr - 18:35:19 10° S 18:39:19 27° SE 18:43:16 10° ENE visible
06 Apr - 20:17:04 10° WSW 20:20:45 23° NW 20:24:23 10° N visible
07 Apr - 06:43:30 10° NNW 06:47:40 42° NE 06:51:54 10° ESE daylight
07 Apr - 08:26:57 10° WSW 08:29:07 13° SW 08:31:17 10° SSW daylight
07 Apr - 18:51:38 10° SW 18:56:19 75° SE 19:00:57 10° NE visible
